Location: Caltech
(34.1382°N, 118.1253°W)
Time: 16:19:20
(UTC-07:00)

SEDSat Delta rocket - Visible Passes

Search period start: 17 August 2017 00:00
Search period end: 27 August 2017 00:00
Orbit: 533 x 1002 km, 31.4° (Epoch: 17 August)

Date Brightness Start Highest point End Pass type
(mag) Time Alt. Az. Time Alt. Az. Time Alt. Az.
17 Aug 4.3 20:09:50 10° W 20:16:31 59° SSW 20:22:31 12° ESE visible
17 Aug 5.0 21:57:04 10° W 22:02:38 29° SSW 22:02:38 29° SSW visible
18 Aug 5.0 21:16:08 10° W 21:22:05 33° SSW 21:24:19 27° S visible
19 Aug 4.9 20:35:16 10° W 20:41:27 38° SSW 20:46:02 17° SE visible
19 Aug 6.1 22:24:21 10° WSW 22:26:09 13° SW 22:26:09 13° SW visible
20 Aug 4.9 19:54:29 10° W 20:00:47 42° SSW 20:07:01 10° SE visible
20 Aug 5.8 21:42:48 10° WSW 21:46:42 16° SSW 21:47:56 15° SSW visible
21 Aug 5.8 21:01:34 10° WSW 21:06:08 19° SSW 21:09:45 13° S visible
22 Aug 5.7 20:20:31 10° WSW 20:25:32 22° SSW 20:30:33 10° SSE visible
25 Aug 6.4 20:08:31 10° SW 20:09:34 10° SW 20:10:38 10° SSW visible
